Weather History for Estherville, IA

Change the Weather History Date:

Thursday, November 8, 2012

  Actual Average Record
Temperature  
Mean Temperature 46 °F 37 °F  
Max Temperature 59 °F 47 °F 81 °F (2006)
Min Temperature 33 °F 27 °F -3 °F (1991)
Degree Days  
Heating Degree Days 19 28  
Month to date heating degree days 196 210  
Since 1 July heating degree days 975 959  
Cooling Degree Days 0 0  
Month to date cooling degree days 0 0  
Year to date cooling degree days 886 593  
Moisture  
Dew Point 34 °F    
Average Humidity 65    
Maximum Humidity 89    
Minimum Humidity 40    
Precipitation  
Precipitation 0.00 in 0.05 in 0.50 in (1986)
Month to date precipitation 0.34 0.44  
Sea Level Pressure  
Sea Level Pressure 29.96 in    
Wind  
Wind Speed 13 mph (SSW)    
Max Wind Speed 24 mph    
Max Gust Speed 29 mph    
Visibility 10 miles    
Events      
T = Trace of Precipitation, MM = Missing Value Source: NWS Daily Summary

Daily Weather History Graph

Daily Weather History Graph

Search for Another Location

Airport:

Trip Planner

Search our weather history database for the weather conditions in past years. The results will help you decide how hot, cold, wet, or windy it might be!

Date:

Astronomy

Nov. 08, 2012 Rise Set
Actual Time 7:04 AM CST 5:00 PM CST
Civil Twilight 6:33 AM CST 5:31 PM CST
Nautical Twilight 5:59 AM CST 6:05 PM CST
Astronomical Twilight 5:26 AM CST 6:38 PM CST
Moon 12:50 AM CST (11/8) 1:51 PM CST (11/8)
Length of Visible Light 10h 57m
Length of Day
9h 56m
Waning Crescent, 32% of the Moon is Illuminated
Nov 8
Waning Crescent
Nov 13
New
Nov 20
First Quarter
Nov 28
Full
Dec 6
Last Quarter

Hourly Weather History & Observations

Time (CST) Temp. Windchill Dew Point Humidity Pressure Visibility Wind Dir Wind Speed Gust Speed Precip Events Conditions
12:52 AM 35.1 °F 24.8 °F 30.0 °F 82% 30.04 in 10.0 mi South 17.3 mph - N/A   Clear
1:52 AM 34.0 °F 24.2 °F 30.0 °F 85% 30.02 in 10.0 mi South 15.0 mph - N/A   Clear
2:52 AM 34.0 °F 23.8 °F 30.0 °F 85% 30.00 in 10.0 mi South 16.1 mph - N/A   Clear
3:52 AM 34.0 °F 24.2 °F 30.0 °F 85% 29.99 in 10.0 mi South 15.0 mph - N/A   Clear
4:52 AM 34.0 °F 24.2 °F 30.0 °F 85% 29.98 in 10.0 mi South 15.0 mph - N/A   Clear
5:52 AM 34.0 °F 23.4 °F 30.0 °F 85% 29.96 in 10.0 mi South 17.3 mph - N/A   Clear
6:52 AM 34.0 °F 23.0 °F 30.0 °F 85% 29.94 in 10.0 mi South 18.4 mph - N/A   Clear
7:52 AM 35.1 °F 25.2 °F 30.9 °F 85% 29.96 in 10.0 mi South 16.1 mph 24.2 mph N/A   Clear
8:52 AM 39.0 °F 29.6 °F 33.1 °F 79% 29.97 in 10.0 mi South 18.4 mph - N/A   Clear
9:52 AM 44.1 °F 35.7 °F 35.1 °F 71% 29.96 in 10.0 mi South 20.7 mph - N/A   Clear
10:52 AM 50.0 °F - 36.0 °F 59% 29.96 in 10.0 mi South 17.3 mph - N/A   Clear
11:52 AM 54.0 °F - 36.0 °F 51% 29.94 in 10.0 mi SW 15.0 mph 24.2 mph N/A   Clear
12:52 PM 57.0 °F - 35.1 °F 44% 29.91 in 10.0 mi SW 16.1 mph 21.9 mph N/A   Clear
1:52 PM 57.9 °F - 36.0 °F 44% 29.91 in 10.0 mi SW 8.1 mph - N/A   Clear
2:52 PM 59.0 °F - 36.0 °F 42% 29.91 in 10.0 mi SW 6.9 mph - N/A   Clear
3:52 PM 59.0 °F - 36.0 °F 42% 29.92 in 10.0 mi WSW 4.6 mph - N/A   Clear
4:52 PM 55.9 °F - 37.0 °F 49% 29.93 in 10.0 mi NNW 4.6 mph - N/A   Clear
5:52 PM 46.9 °F - 37.0 °F 68% 29.94 in 10.0 mi North 9.2 mph - N/A   Clear
6:52 PM 43.0 °F 37.7 °F 36.0 °F 76% 29.96 in 10.0 mi North 9.2 mph - N/A   Clear
7:52 PM 42.1 °F 37.1 °F 35.1 °F 76% 29.96 in 10.0 mi NNE 8.1 mph - N/A   Clear
8:52 PM 39.9 °F 33.9 °F 34.0 °F 79% 29.96 in 10.0 mi North 9.2 mph - N/A   Clear
9:52 PM 37.9 °F 32.1 °F 34.0 °F 86% 29.97 in 10.0 mi North 8.1 mph - N/A   Clear
10:52 PM 37.0 °F 31.0 °F 34.0 °F 89% 29.97 in 8.0 mi North 8.1 mph - N/A   Clear
11:52 PM 35.1 °F 29.3 °F 33.1 °F 92% 29.96 in 6.0 mi North 6.9 mph - N/A   Clear